Tracking 18844 objects as of 21-Nov-2017
HD Live streaming from Space Station
objects crossing your sky now

NIMBUS 2 DEB

Track NIMBUS 2 DEB now!
10-day predictions


NORAD ID: 28978
Int'l Code: 1966-040AP
Perigee: 1,071.7 km
Apogee: 1,142.8 km
Inclination: 100.4 °
Period: 107.3 minutes
Semi major axis: 7478 km
RCS: 0.0207 m2 (small)
Launch date: May 15, 1966
Source: United States (US)
Launch site: AIR FORCE WESTERN TEST RANGE (AFWTR)

Note: This is SATELLITE DEBRIS
aabbcc
Your satellite tracking list
Your tracking list is empty




NASA's NSSDC Master Catalog

Two Line Element Set (TLE):
1 28978U 66040AP  17323.31729142 +.00000689 +00000-0 +12953-2 0  9990
2 28978 100.4119 093.1797 0047489 350.4317 063.4064 13.42462792508559
Source of the keplerian elements: AFSPC